Location: Cooper Lake State Park
(33.3431°N, 95.6813°W)
Time: 03:34:33
(UTC-06:00)

Hubble Space Telescope - Visible Passes

Search period start: 11 December 2018 00:00
Search period end: 21 December 2018 00:00
Orbit: 537 x 540 km, 28.5° (Epoch: 10 December)

Date Brightness Start Highest point End Pass type
(mag) Time Alt. Az. Time Alt. Az. Time Alt. Az.
11 Dec 3.0 05:52:21 12° SW 05:53:39 13° SSW 05:55:36 10° S visible
12 Dec 3.2 05:42:36 10° SSW 05:43:06 10° SSW 05:43:41 10° SSW visible
19 Dec 3.5 19:51:51 10° SW 19:52:32 13° SSW 19:52:32 13° SSW visible
20 Dec 3.1 19:41:09 10° SW 19:42:45 19° SSW 19:42:45 19° SSW visible
